Location: Calvatone
(45.1167°N, 10.4333°E)
Time: 09:35:03
(UTC+00:00)

METEOR M2 - Pass Details

Date: 03 December 2023
Orbit: 818 x 826 km, 98.4° (Epoch: 24 February)

Event Time Altitude Azimuth Distance (km) Brightness Sun altitude
Rises 05:37:54 0° 10° (N) 3,372 ? -10.4°
Reaches altitude 10° 05:40:17 10° 8° (N) 2,434 ? -10.0°
Maximum altitude 05:45:35 63° 288° (WNW) 915 ? -9.1°
Drops below altitude 10° 05:50:52 10° 208° (SSW) 2,412 ? -8.3°
Sets 05:53:13 0° 205° (SSW) 3,339 ? -7.9°
